Location: Newark
(50.4348°N, 30.5552°E)
Time: 05:03:01
(UTC+00:00)

Envisat - Pass Details

Date: 15 December 2019
Orbit: 764 x 766 km, 98.1° (Epoch: 20 January)

Event Time Altitude Azimuth Distance (km) Brightness Sun altitude
Rises 16:10:55 0° 179° (S) 3,221 6.4 -20.5°
Reaches altitude 10° 16:13:16 10° 184° (S) 2,300 5.6 -20.9°
Maximum altitude 16:18:12 51° 261° (W) 959 3.8 -21.7°
Drops below altitude 10° 16:23:11 10° 337° (NNW) 2,316 5.6 -22.4°
Sets 16:25:34 0° 343° (NNW) 3,247 6.3 -22.8°
